Погода в Тевризе

Погода в Тевризе : погода сейчас, прогноз погоды и архив. Всё, что Вы хотите узнать о погоде в Тевризе!

Хотите узнать прогноз погоды в Тевризе? Тогда Вам сюда: Погода в Тевризе

Поиск расширенной информации на нашем сайте:

Другие новости

Новости СМИ2

Главная страница сайта

Новости сайта

03.07.2017

Напоминаем, что на нашем специализированном сайте Метеоцентр.Азия вы можете получить высокодетализированные автоматические прогнозы погоды по пунктам России, СНГ и мира в авиационном формате (включающие направление и скорость ветра, видимость, явления погоды, количество и форму облачности, нижнюю и верхнюю границу облачности).


Погода в Тевризе - сегодня

Время (UTC), дата Ветер
(°,м/с) 
Видим.   Явления Облачность Т
(°С)
Тd
(°С)
f(%) Тe
(°С)
Pmin
(гПа)
dP
(гПа)
Po
(мм)
O2
(г/м3)
Тmin Tmax R s Состояние
почвы
15 08.08.18 110 (В) 7000 м  в посл. час ливневой дождь  10/3 600 м кучево-дожд., верхняя 
[Cb cap|Ci ing]
+19 +18.7 98 +36  1006  0.7  749  278    +28.8     
21 08.08.18 100 (В) 10 км  местами туман поземный  1/0 средняя 
[Ac trans]
+15.7 +15.7 100 +27  1005.9  -0.7  749  282           
03 09.08.18 100 (В) 20000 м    10/0 верхняя 
[Cc]
+21.2 +19.1 88 +38  1005.3  -0.2  748  275  +14.1    0.1     
09 09.08.18 180 (Ю) 20000 м    6/6 1000 м 
[Cu med, cong]
+28.4 +18.1 54 +43  1003.2  -1.4  747  269           
15 09.08.18 060 (СВ) 3{11}  20000 м  гроза без осадков{ливн. осадки}  10/6 600 м кучево-дожд., средняя 
[Cb cap|Ac und]
+18.5 +18.5 100 +35  1003.2  0.8  747  277    +28.9  10     
21 09.08.18 360 (С) 10 км    10/6 600 м кучево-дожд., средняя 
[Cb cap|Ac und]
+17 +17 100 +31  1002.1  -0.7  746  279           
03 10.08.18 120 (ЮВ) 8000 м  дымка  10/10 240 м 
[St]
+18.1 +18.1 100 +35  1001.1  -0.6  745  277  +16.2         
15 10.08.18 280 (З) 20000 м  {ливн. осадки}  10/10 300 м кучево-дожд. 
[Cb cap|Ns]
+14.5 +14.5 100 +22  999.7  744  282    +19.4     
03 11.08.18 240 (ЮЗ) 18000 м    10/8 480 м средняя 
[Cu hum|Ac und]
+13.1 +12.6 97 +18  995.4  -1.9  741  282  +11.6    0.3     
09 11.08.18 230 (ЮЗ) 20000 м    10/8 1020 м кучево-дожд., средняя 
[Cb cap|As op]
+16 +13 82 +22  992.8  -0.6  739  279           
15 11.08.18 330 (СЗ) 5-10{10}  7000 м  слаб. ливневой дождь  10/10 360 м кучево-дожд. 
[Cb cap]
+11.1 +11.1 100 +13  994.6  1.8  740  284    +18.3     
03 12.08.18 350 (С) 4{10}  11000 м  слаб. дождь  10/4 300 м средняя 
[Frnb|As op]
+10.1 +9.5 96 +10  1002.2  2.7  746  288  +8.9    12    влажная 
09 12.08.18 350 (С) 20000 м    10/10 1380 м 
[Sc]
+14.5 +7.1 61 +14  1005.9  1.7  749  285           
15 12.08.18 тихо ()   20000 м    3/0 средняя 
[Ac lent]
+10 +9.9 99 +11  1008.5  751  290    +16.1  0.0     
21 12.08.18 220 (ЮЗ) 10 км    4/0 средняя 
[Ac trans]
+6.8 +6.8 100 +8  1010  0.5  752  294           
03 13.08.18 260 (З) 20000 м    8/0 верхняя 
[Cc]
+13.7 +11.2 85 +17  1011.6  1.3  753  287  +6.3         
09 13.08.18 240 (ЮЗ) 20000 м    8/5 1000 м средняя 
[Cu hum|Ac trans]
+21.4 +11.9 55 +25  1011.7  0.1  753  279           
15 13.08.18 200 (Ю) 20000 м    8/0 средняя, верхняя 
[Ac lent|Ci fib]
+17.6 +14.8 84 +26  1012.5  0.6  754  282    +22.1       
21 13.08.18 150 (ЮВ) 10 км    10/0 верхняя 
[Cs]
+15.8 +14.5 92 +25  1012.8  0.1  754  284           
03 14.08.18 190 (Ю) 20000 м    3/0 верхняя 
[Ci sp]
+20 +17.2 84 +33  1013.2  0.3  754  279  +13.8    0.0    влажная 
09 14.08.18 190 (Ю) 20000 м    3/3 600 м 
[Cu hum]
+27.9 +17.3 53 +41  1012.6  -0.3  754  272           
15 14.08.18 170 (Ю) 20000 м    6/3 600 м средняя 
[Sc diur, vesp|Ac lent]
+23.1 +17.2 69 +36  1012  -0.2  753  276    +28       
21 14.08.18 170 (Ю) 10 км    9/0 верхняя 
[Cs]
+18.3 +14.8 80 +27  1012.3  -0.1  753  281           
03 15.08.18 140 (ЮВ) 20000 м    9/4 600 м кучево-дожд., средняя, верхняя 
[Cb cap|Ac cast|Cc]
+19.3 +14.1 72 +27  1011  -0.6  753  280  +15.9         
09 15.08.18 150 (ЮВ) 20000 м    10/0 средняя, верхняя 
[Ac cast|Cs]
+26.1 +15 50 +35  1009.4  -1.3  752  273           
Время (UTC), дата Ветер
(°,м/с) 
Видим.   Явления Облачность Т
(°С)
Тd
(°С)
f(%) Тe
(°С)
Pmin
(гПа)
dP
(гПа)
Po
(мм)
O2
(г/м3)
Тmin Tmax R s Состояние
почвы

Для получения пояснительной информации подведите курсор к названию столбца.

ПОГОДА в Тевризе - архив

Всё, что Вы хотите узнать о погоде в Тевризе - удобно и подробно!

Выберите нужную дату (начиная с 1 января 2015* года) и нажмите кнопку "Найти".
Будут отображены архивные сводки погоды по пункту Тевриз, начиная с указанной даты.


Отображать данные в формате CSV (для использования в таблицах Excel)


Внимание! Наш архив погоды предназначен исключительно для личного некоммерческого использования в познавательных целях. Если Вам необходимы официальные справки о состоянии погоды (для производственных, юридических, коммерческих и т.п. целей), обращайтесь в органы Росгидромета.

*Примечание: данная дата относится к архиву по метеостанциям СССР (Россия, СНГ, Балтия).
Архив по метеостанциям Зарубежной Европы и Азии (кроме Китая) хранится 10 дней, по другим регионам земного шара (Китай, Африка, Америка, Австралия, Океания) - 1 день.

Тевриз - район местоположения метеостанции


Название, широта, долгота, высота метеостанции:
Тевриз 57.5°ш. 72.4°д. 67 м над ур. моря [Российская Федерация]

Дополнительная информация

В oтличие oт бoльшинства пoгoдных сайтoв мы публикуем пoдрoбную метеoинфoрмацию в детальнoм прoфессиoнальнoм фoрмате.

Характеристики температуры и влажнoсти вoздуха измеряются на высoте 2 м в тени вдали oт зданий и деревьев.
Скoрoсть ветра измеряется на высoте 10 м (на урoвне рoста челoвека скoрoсть ветра ниже в 1.5-2 раза). Если метеoстанция нахoдится в гoрoде или в лесу, тo скoрoсть ветра занижена на 2-4 м/с пo сравнению с oткрытым местoм. Скoрoсть ветра над акватoриями крупных рек и oзёр, а также на вершинах хoлмoв на 2-5 м/с выше, чем в oбычных услoвиях.
Атмoсфернoе давление в разных тoчках местнoсти мoжет значительнo oтличаться oт давления на метеoстанции, в зависимoсти oт услoвий рельефа (при пoдъёме на 10 м давление пoнижается примернo на 1 мм рт.ст.).